EW7404 Weather Reports


time (UTC)temp
F
wind
direction
speed
knots
gust
knots
rain 1hr
in
rain 24hr
in
rain mn
in
humidity
%
barometer
mb
20260505090556 40 23 7.8 14.8 0.00 5.78 2.77 57 952.6
20260505085535 39 35 7.0 15.6 0.00 5.78 2.77 62 952.5
20260505084515 39 38 4.3 10.4 2.56 5.78 2.77 59 952.6
20260505084035 37 11 13.9 21.7 2.56 5.78 2.77 64 952.3
20260505083016 37 2 10.4 16.5 2.56 5.78 2.77 65 952.3
20260505082015 37 360 11.3 20.9 2.56 5.78 2.77 65 952.3
20260505081016 37 16 9.6 17.4 2.56 5.78 2.77 64 952.2
20260505080015 36 3 9.6 15.6 2.56 5.78 2.77 71 952.2
20260505075015 36 13 11.3 14.8 0.00 3.22 0.21 74 952.2
20260505074016 36 12 7.8 13.0 0.00 3.22 0.21 73 952.2
20260505073035 37 11 11.3 17.4 0.00 3.22 0.21 69 952.1
20260505072015 36 16 6.1 13.0 0.00 3.22 0.21 74 952.1
20260505071015 36 13 9.6 15.6 0.00 3.22 0.21 75 952.1
20260505070016 35 360 9.6 14.8 0.00 3.22 0.21 76 952.1
20260505065115 35 11 11.3 16.5 0.00 3.22 0.21 76 951.9
20260505064016 35 1 9.6 13.9 0.00 3.22 0.21 77 951.9
20260505063015 35 9 11.3 16.5 0.00 3.22 0.21 76 951.8
20260505062015 34 11 11.3 15.6 0.00 3.22 0.21 76 951.7
20260505061015 34 3 12.2 16.5 0.00 3.22 0.21 76 951.7
20260505060015 34 357 11.3 14.8 0.00 3.22 0.21 77 952.2
20260505055015 34 346 11.3 15.6 0.00 3.22 0.21 77 952.0
20260505054015 34 344 13.9 18.2 0.00 3.22 0.21 78 952.0
20260505053015 34 348 12.2 18.2 0.00 3.22 0.21 77 951.7
20260505052015 34 347 13.0 18.2 0.00 3.22 0.21 77 951.6
20260505051015 34 347 13.0 19.1 0.00 3.22 0.21 77 951.6
20260505041015 34 332 13.9 17.4 0.00 3.46 0.21 77 951.5
20260505040015 34 331 13.0 18.2 0.00 3.46 0.21 77 951.5
20260505035015 33 332 13.0 17.4 0.00 3.46 0.21 76 951.5
20260505034014 34 330 13.0 17.4 0.00 3.46 0.21 76 951.5
20260505033015 34 335 13.0 18.2 0.00 3.46 0.21 75 951.5
20260505032015 34 329 13.0 16.5 0.21 3.46 0.21 75 951.4
20260505031014 34 334 13.9 18.2 0.21 3.46 0.21 75 951.4
20260505030016 34 333 13.9 18.2 0.21 3.46 0.21 74 951.4
20260505025015 34 336 13.0 20.0 0.21 3.46 0.21 75 951.5
20260505024015 34 326 12.2 17.4 0.21 3.46 0.21 75 951.5
20260505023016 34 318 12.2 17.4 0.21 3.46 0.21 75 951.4
20260505022015 34 325 11.3 14.8 0.00 3.24 0.00 75 951.5
20260505021016 34 333 12.2 16.5 0.00 3.24 0.00 75 951.5
20260505020035 34 327 11.3 14.8 0.00 3.24 0.00 75 951.5
20260505015015 33 323 11.3 13.9 0.00 3.24 0.00 76 951.4
20260505014015 33 313 10.4 13.9 0.00 3.24 0.00 78 951.4
20260505013115 33 316 11.3 14.8 0.00 3.24 0.00 79 951.5
20260505012016 33 313 12.2 16.5 0.00 3.24 0.00 78 951.5
20260505011015 33 307 11.3 15.6 0.00 3.24 0.00 77 951.4
20260505010016 33 302 10.4 14.8 0.00 3.24 0.00 77 951.4
20260505005015 34 312 11.3 16.5 0.00 3.24 0.00 75 951.5
20260505004015 33 301 12.2 15.6 0.00 3.24 0.00 77 951.4
20260505003035 33 301 13.0 16.5 0.00 3.24 0.00 78 951.4
20260505002015 33 300 11.3 14.8 0.00 3.24 0.00 77 951.5
20260505001015 33 300 12.2 15.6 0.00 3.24 0.00 78 951.6
20260505000015 33 302 12.2 15.6 0.00 3.24 0.00 75 951.6
20260504235016 33 301 12.2 13.9 0.00 3.24 0.00 74 951.6
20260504234015 34 305 11.3 15.6 0.00 3.24 0.00 73 951.7
20260504233135 34 315 9.6 12.2 0.00 3.24 0.00 72 951.8
20260504232015 34 320 10.4 13.0 0.00 3.24 0.00 72 951.8
20260504231015 34 321 10.4 13.9 0.00 3.24 0.00 72 951.9
20260504230015 34 321 11.3 14.8 0.00 3.24 0.00 72 952.0
20260504225015 34 316 10.4 13.0 0.00 3.24 0.00 74 952.0
20260504224015 34 311 10.4 13.0 0.00 3.24 0.00 75 952.1
20260504223015 34 320 11.3 14.8 0.00 3.24 0.00 73 952.2
20260504222136 34 325 10.4 13.9 0.00 3.49 0.00 74 952.2
20260504221015 34 332 13.0 15.6 0.00 3.49 0.00 74 952.2
20260504220015 34 341 13.0 17.4 0.00 3.49 0.00 74 952.1
20260504215015 34 336 11.3 16.5 0.00 3.49 0.00 76 952.2
20260504214015 34 330 11.3 15.6 0.24 3.49 0.00 76 952.2
20260504213016 34 326 9.6 13.0 0.24 3.49 0.00 77 952.1
20260504212015 34 336 11.3 14.8 0.24 3.49 0.00 77 952.1
20260504211015 34 332 10.4 13.9 0.24 3.49 0.00 77 952.1
20260504210015 34 326 8.7 12.2 0.24 3.49 0.00 77 952.2
20260504205015 34 324 9.6 13.0 0.24 3.49 3.49 77 952.2
20260504204016 34 325 9.6 13.0 0.00 3.26 3.26 77 952.2
20260504203035 34 319 11.3 13.0 0.00 3.26 3.26 77 952.2
20260504202015 34 325 9.6 11.3 0.00 3.26 3.26 78 952.2
20260504201035 34 321 8.7 11.3 0.00 3.26 3.26 77 952.1
20260504200015 34 325 7.8 10.4 0.00 3.26 3.26 78 952.1
20260504195015 34 339 7.0 8.7 0.00 3.26 3.26 77 952.0
20260504194016 33 346 7.0 8.7 0.00 3.26 3.26 77 952.1
20260504193015 33 339 5.2 7.0 2.56 3.26 3.26 79 952.0
20260504192015 33 342 6.1 7.8 2.56 3.49 3.26 81 951.9
20260504191016 33 343 6.1 7.0 2.56 3.49 3.26 82 951.9
20260504190015 33 353 5.2 7.0 2.56 3.49 3.26 82 951.8
20260504185015 33 347 6.1 7.8 2.56 3.49 3.26 82 951.7
20260504184015 33 353 6.1 7.8 2.56 3.49 3.26 83 951.6
20260504183035 33 353 6.1 8.7 0.00 0.93 0.70 83 951.6
20260504182015 33 345 7.0 9.6 0.00 0.93 0.70 83 951.5
20260504181015 33 354 7.8 9.6 0.00 0.93 0.70 83 951.4
20260504180015 33 4 7.8 9.6 0.00 0.93 0.70 82 951.2
20260504175015 33 5 8.7 11.3 0.00 0.93 0.70 80 951.3
20260504174015 33 11 7.8 10.4 0.00 0.93 0.70 79 951.2
20260504173015 33 14 8.7 11.3 0.00 0.93 0.70 79 951.1
20260504172016 33 13 8.7 12.2 0.00 0.93 0.70 77 951.1
20260504171015 33 23 7.0 11.3 0.00 0.93 0.70 76 951.1
20260504151015 33 29 7.8 13.9 0.00 0.94 0.70 77 951.1
20260504141015 33 62 7.8 14.8 0.01 0.94 0.69 76 950.7
20260504110516 31 33 6.1 14.8 0.00 1.18 0.68 81 950.6